Theta_e
321 318 314 313 314 315 318 321 321 321 320 319 317 317 317 317 318 319 321 322 323 323 325 330 331 331 331 330 331 331 329 327 325 323 323 324 330 336 337 337 338 339 338 338 337 336 335 333 333 333 333 333 332 332 332 333 330 325 326 328 325 322 324 326 327 329 330 332 334 334 334 331 327 324 320 316 315 314 312 311 310 310 311 311 311
319 317 315 314 314 315 318 321 321 321 319 318 317 317 317 317 318 319 321 321 322 324 328 330 329 330 331 331 330 328 326 323 321 320 321 323 331 337 337 338 339 339 339 337 336 335 334 333 332 332 333 332 332 332 332 332 327 326 328 325 323 323 325 325 325 326 326 328 330 330 329 327 324 322 317 314 313 313 312 311 311 311 311 311 311
318 317 315 314 315 315 318 320 320 320 318 317 317 317 317 318 319 319 320 321 323 327 329 328 328 330 330 330 328 325 323 321 318 316 318 322 332 338 338 338 339 338 336 335 333 332 332 332 332 332 332 332 333 332 332 331 326 328 330 326 327 328 327 327 325 323 322 322 322 323 322 321 320 318 314 312 312 312 311 311 311 311 311 311 312
318 317 314 314 314 315 318 320 320 319 317 316 317 317 317 317 319 319 321 323 326 328 328 327 327 328 329 329 326 321 317 316 315 313 316 321 331 338 339 338 338 335 333 332 332 331 332 332 332 331 331 331 331 331 331 329 324 329 331 330 331 330 329 327 326 325 323 321 320 319 317 316 315 314 313 312 312 312 312 311 312 311 311 311 311
318 316 315 314 315 315 317 319 319 318 316 317 317 317 318 318 319 321 323 325 327 328 326 326 325 326 328 327 322 316 312 312 312 311 312 318 329 337 338 338 336 333 332 332 332 332 332 331 330 329 327 326 325 326 327 324 323 330 332 332 333 332 331 329 327 324 322 322 320 315 313 313 312 312 312 312 312 312 312 312 312 311 312 312 311
320 317 315 314 315 315 317 319 318 317 316 316 317 317 318 319 321 322 324 325 326 326 324 323 322 323 324 322 317 313 311 310 309 309 309 314 324 334 336 336 335 333 332 331 331 331 330 328 325 322 319 317 316 317 317 317 323 331 332 332 333 333 332 331 328 324 323 323 321 317 315 314 311 311 311 311 312 312 312 312 312 312 312 312 312
325 319 315 315 315 316 317 319 318 317 316 316 317 318 320 321 323 323 324 325 325 324 322 320 318 318 319 318 314 311 309 308 308 308 308 310 318 329 334 335 334 332 330 329 328 328 326 321 317 314 312 311 311 311 310 315 326 331 332 333 333 333 333 331 329 326 327 326 325 322 318 315 313 313 311 311 311 312 312 312 312 312 312 312 312
333 324 315 314 315 316 317 318 319 317 316 317 318 320 321 323 324 324 324 323 324 322 319 317 315 315 315 314 311 309 309 309 309 308 308 308 313 324 332 333 332 331 328 327 326 323 319 314 311 310 310 311 311 310 310 319 329 332 332 333 333 333 332 331 328 327 327 326 324 321 319 319 318 316 313 310 311 311 312 312 312 312 312 312 312
340 331 317 315 315 315 318 318 318 317 316 317 319 322 323 324 325 324 323 322 322 320 317 315 313 312 311 310 310 309 310 309 309 309 309 308 310 318 327 330 330 329 326 324 321 318 313 310 310 310 311 312 311 311 316 326 331 331 332 331 331 331 331 329 325 325 326 325 324 322 323 324 322 320 318 314 311 311 311 312 312 312 312 312 312
342 334 320 314 315 316 318 318 318 317 316 317 321 323 323 325 325 325 323 321 320 318 315 312 311 310 310 309 310 310 310 309 309 309 309 309 309 312 320 326 327 326 323 320 316 313 311 310 310 310 313 313 312 316 323 329 330 330 331 330 330 330 330 327 324 326 327 327 326 326 326 326 325 324 324 319 314 312 311 312 312 312 312 312 312
342 335 321 314 315 316 318 318 318 317 316 319 323 324 324 325 326 326 323 320 318 315 313 311 310 310 310 310 310 310 310 310 309 309 309 310 310 310 315 321 323 322 319 316 314 311 310 310 310 310 314 315 317 322 327 329 329 330 330 330 330 330 330 328 325 326 327 327 327 326 327 327 327 327 328 325 319 315 312 312 312 312 312 312 312
343 335 322 314 315 315 318 319 318 317 317 320 324 324 324 325 325 325 323 319 316 314 311 310 310 310 310 311 311 311 310 310 310 310 311 310 311 311 313 317 318 317 315 314 313 311 310 310 311 310 313 317 321 324 326 328 329 330 330 331 331 331 330 328 326 326 326 327 325 326 327 328 328 329 329 326 323 319 315 313 313 312 312 312 312
342 334 321 314 314 316 318 318 318 317 318 322 325 325 325 325 326 325 323 318 316 313 310 310 310 310 311 311 311 311 311 310 311 310 311 312 312 311 312 314 314 314 314 314 312 311 310 311 311 311 311 316 322 324 325 327 329 330 331 332 332 331 330 328 327 327 327 327 325 327 328 328 329 330 329 328 328 323 318 316 316 315 315 313 312
342 331 318 314 315 316 318 318 318 317 320 324 325 326 327 326 326 325 321 319 316 312 310 310 310 310 310 311 312 312 311 311 311 311 311 312 312 312 312 313 313 314 314 313 312 310 311 311 311 311 311 312 317 323 326 328 329 330 331 331 331 330 330 329 327 327 327 327 327 328 329 329 330 330 330 331 330 327 322 319 317 318 317 317 314
340 329 316 313 315 316 318 318 317 318 322 325 326 327 327 326 326 324 321 319 316 311 310 310 310 310 310 311 311 311 312 312 312 312 312 312 312 313 313 313 313 313 313 312 311 311 311 311 312 312 312 311 312 316 321 327 328 330 331 331 330 329 330 330 329 328 328 328 329 330 330 329 329 330 331 332 331 330 328 324 320 319 318 318 317
332 324 315 314 315 317 318 317 317 319 324 326 327 327 327 327 327 324 323 320 315 310 310 310 310 310 311 311 311 311 312 312 312 312 312 313 313 313 313 313 313 312 312 311 311 311 312 312 312 312 312 313 313 312 314 320 326 330 331 330 330 329 329 331 331 329 329 330 330 330 329 327 329 331 332 332 332 330 331 329 327 325 321 318 318
324 319 314 314 315 317 317 317 318 321 326 327 327 328 328 328 327 325 324 320 313 310 310 310 310 310 310 311 311 311 311 312 312 312 312 312 313 313 313 314 314 313 312 312 312 312 313 313 313 314 313 313 313 313 313 314 321 327 329 329 329 329 330 330 331 331 330 330 329 329 329 328 330 332 332 332 332 331 330 331 330 330 326 319 317
320 315 314 314 315 317 317 317 319 323 327 327 327 328 329 329 328 326 323 319 313 310 310 310 310 310 311 311 311 312 312 312 312 312 312 312 312 312 313 314 314 314 314 314 314 314 315 315 315 316 316 316 315 315 315 314 316 321 325 326 323 325 329 330 331 331 331 330 329 330 330 329 330 331 331 331 331 331 331 331 331 331 329 323 317
317 314 313 315 316 317 317 317 320 325 326 327 328 329 330 330 328 326 324 320 314 311 309 309 310 310 310 311 311 312 312 312 312 312 312 312 312 312 312 312 313 314 314 315 315 316 316 317 317 318 318 318 318 318 318 318 317 318 320 321 319 320 325 328 331 331 331 330 328 327 325 326 330 331 330 330 331 331 331 332 332 331 331 328 323
314 313 313 315 316 317 317 318 323 325 326 327 328 329 330 330 328 326 324 322 317 312 310 309 309 310 310 310 311 311 311 311 311 311 311 312 312 311 311 311 312 311 312 313 313 314 315 316 316 316 316 316 316 316 316 316 317 317 317 318 318 319 321 324 327 329 329 328 327 326 323 323 328 331 330 330 331 331 332 332 332 331 331 331 329
313 313 314 315 316 317 317 320 323 325 325 327 328 328 329 330 329 327 325 323 319 314 310 309 309 309 310 310 311 311 312 312 312 312 313 313 314 315 315 315 314 314 315 315 313 313 313 313 313 314 315 315 316 316 316 317 317 317 315 315 315 317 320 324 327 328 328 329 329 328 328 327 327 329 329 330 330 331 333 333 332 332 332 332 331
313 312 313 315 316 317 318 320 323 324 325 327 327 327 328 329 328 326 325 323 320 315 311 310 309 310 312 315 318 318 316 315 314 315 317 320 323 326 327 326 326 326 326 326 324 323 321 321 323 325 326 326 326 326 326 326 325 324 321 318 317 318 323 326 328 329 329 329 329 329 330 330 330 330 330 330 330 331 332 333 332 332 332 332 332
315 313 313 315 315 317 318 320 322 324 325 326 327 326 327 327 327 326 324 323 319 315 312 311 311 315 321 321 321 321 318 315 317 321 324 328 332 334 334 334 334 333 333 333 333 332 331 330 332 334 334 334 333 333 333 332 331 331 329 326 325 325 327 329 329 330 331 331 330 330 331 331 332 332 332 331 331 331 332 332 332 332 332 332 332
318 316 315 314 315 316 317 319 321 323 324 325 326 326 326 326 326 325 324 322 318 315 313 313 317 324 328 324 318 317 316 316 322 329 332 334 335 335 335 334 334 334 334 334 334 334 335 334 334 334 334 335 335 335 334 334 334 333 333 332 332 331 331 332 331 332 332 332 332 331 332 332 332 332 332 332 332 333 333 332 332 332 332 332 332
323 322 319 316 315 316 317 319 321 323 323 325 326 326 326 326 326 325 324 320 318 316 316 320 326 330 331 328 322 317 316 322 330 334 335 335 335 334 334 334 334 334 334 334 334 334 334 334 333 333 333 333 333 333 333 333 333 333 333 333 333 333 333 333 333 333 333 333 333 333 333 332 333 332 332 332 333 333 333 333 333 332 332 332 332
330 330 327 321 316 315 317 318 320 322 323 325 326 326 325 326 326 324 322 319 318 320 323 327 329 331 329 327 324 319 320 329 335 335 335 335 335 334 334 334 333 334 334 333 333 332 332 332 331 331 331 331 330 330 331 331 331 331 331 331 332 332 333 333 334 334 334 334 333 334 334 334 334 333 333 333 333 333 333 333 332 333 332 332 332
335 333 329 322 316 315 316 318 319 320 322 324 326 325 324 326 326 323 321 318 320 325 327 327 328 330 326 322 321 322 327 334 336 335 335 335 334 334 334 334 333 333 332 331 331 331 329 328 329 329 329 328 328 327 327 328 328 328 328 329 329 330 331 331 332 332 333 333 333 334 335 335 334 334 334 334 333 333 333 333 332 333 333 333 333
337 333 327 319 314 315 316 317 318 319 321 323 324 324 324 326 325 321 320 319 323 327 327 328 330 330 325 320 320 326 333 336 336 335 335 334 334 335 334 334 333 332 332 331 331 331 329 328 328 329 329 328 327 327 327 327 328 328 328 328 328 329 329 330 330 330 331 332 333 333 334 334 334 334 334 334 334 333 333 333 332 332 332 332 332
339 335 328 319 314 314 314 316 317 318 319 320 323 324 324 325 323 321 321 321 324 329 331 332 332 330 324 320 322 330 334 335 336 336 335 336 336 336 335 335 333 332 332 332 332 331 329 328 328 329 328 328 328 328 328 328 328 328 328 328 328 328 328 328 329 329 330 331 331 331 331 331 332 332 333 333 334 334 333 333 333 332 332 332 332
339 334 328 320 314 313 314 315 315 317 318 319 321 322 323 323 322 322 324 325 328 332 334 333 330 326 321 319 325 332 334 334 337 337 337 337 338 337 336 334 332 331 331 331 331 330 328 327 328 328 328 328 328 328 328 327 327 327 327 327 327 326 326 326 326 327 327 327 327 327 327 327 328 330 330 331 331 333 334 334 333 333 332 332 332
333 328 324 319 315 314 313 313 314 315 317 318 321 322 322 323 323 323 325 330 333 334 333 329 325 322 320 320 325 330 334 335 337 337 338 338 338 337 335 332 331 332 331 331 331 330 328 327 327 327 325 325 326 326 325 325 325 325 325 326 325 325 324 324 325 325 326 326 326 326 326 327 328 329 330 330 330 331 333 334 333 333 332 332 332
331 326 324 325 324 322 318 315 314 314 315 316 319 321 321 323 324 323 328 334 334 333 330 325 322 323 325 325 324 326 333 337 337 337 338 337 337 336 334 332 332 333 333 332 331 330 328 327 327 326 325 325 326 325 325 324 324 324 324 324 324 324 324 325 326 326 327 327 328 328 328 329 329 330 330 330 331 332 332 333 333 333 332 332 332
331 327 329 334 335 331 323 318 315 314 314 314 317 320 321 324 324 325 330 334 333 332 329 324 325 329 331 330 327 327 334 337 337 337 337 337 336 335 333 332 332 333 334 332 331 330 328 327 327 327 327 326 326 325 324 323 322 322 323 324 324 325 326 327 328 328 328 329 329 329 329 330 330 330 330 331 331 332 332 332 332 331 331 332 331
334 329 333 338 338 335 327 322 320 317 315 314 316 318 321 324 325 328 332 334 333 330 328 326 329 332 333 334 334 334 336 337 337 337 336 335 334 333 332 333 333 334 334 333 331 330 329 328 328 327 326 325 324 323 322 322 322 323 325 326 328 328 329 329 329 328 328 328 329 329 329 330 330 330 330 330 329 329 329 329 330 330 329 329 330
337 334 336 338 338 338 334 329 324 320 317 315 315 318 322 325 328 331 332 334 332 329 329 329 331 332 333 336 338 337 337 336 337 337 334 333 334 334 333 333 334 334 334 333 332 331 329 329 327 326 326 325 324 323 322 322 323 325 328 329 329 328 328 328 327 327 327 327 327 328 328 329 329 329 328 328 327 327 328 328 328 328 328 328 328
340 338 338 339 339 339 337 332 326 321 317 317 318 320 324 328 330 331 332 333 332 331 331 332 333 332 332 336 338 336 336 337 337 335 333 334 335 335 334 333 334 334 333 332 332 330 329 327 326 325 325 324 324 323 322 324 326 328 329 328 328 328 327 327 327 326 326 326 326 326 326 327 326 327 326 326 326 326 327 327 327 328 328 328 328
340 340 339 339 339 339 337 332 330 326 321 322 325 325 328 331 332 330 330 332 332 333 334 334 334 331 332 336 336 335 336 337 336 335 335 336 336 336 335 334 334 333 331 331 331 329 326 325 324 325 325 324 324 323 324 325 327 328 328 328 327 327 327 327 326 326 326 326 326 325 325 325 325 325 325 325 326 327 327 327 327 327 328 327 327
341 341 340 338 338 339 337 334 333 332 328 328 328 329 331 333 334 331 331 332 333 335 335 335 333 331 334 336 334 335 336 336 336 336 336 337 336 336 335 334 334 333 331 331 329 326 323 322 323 324 324 325 325 325 326 327 327 327 328 327 327 327 327 326 327 326 326 325 324 324 324 324 325 325 325 326 326 326 326 327 327 327 328 327 327
341 341 340 340 340 338 336 335 334 334 332 331 331 330 333 335 335 335 335 335 335 335 334 332 331 333 337 336 334 334 335 335 336 336 336 337 336 336 335 334 334 332 331 329 325 322 321 321 322 323 325 326 327 327 327 327 326 327 328 327 327 327 326 326 327 326 325 324 323 324 324 323 324 324 325 325 326 326 326 327 327 327 327 327 326
341 341 341 340 340 338 336 335 335 335 334 334 333 333 335 336 336 336 336 336 335 334 330 329 332 336 338 334 332 332 334 335 334 334 336 336 336 335 335 334 332 330 328 324 321 320 320 320 321 323 325 327 328 327 327 326 326 327 327 327 327 327 326 325 326 325 323 323 324 324 324 324 323 324 324 325 326 326 326 326 327 327 327 327 327
342 342 341 339 338 337 337 336 336 335 334 335 334 333 335 336 336 336 336 336 334 331 327 329 335 338 336 332 331 331 333 333 332 333 335 335 335 334 333 332 329 325 321 319 319 319 319 320 321 323 325 327 326 326 325 325 325 325 325 326 326 327 326 322 323 324 322 322 323 323 324 325 324 324 324 326 326 326 326 325 326 327 328 328 328
341 341 341 338 336 337 337 337 336 336 336 335 334 333 333 335 336 336 336 335 331 328 328 333 336 336 334 332 331 331 331 331 331 333 335 334 334 331 329 327 323 319 318 319 319 319 319 320 321 323 326 325 324 325 326 325 325 325 324 324 324 324 324 322 320 322 321 320 322 322 323 325 325 324 325 326 326 326 325 325 324 325 326 327 328
341 341 341 338 337 337 338 337 337 337 336 335 335 333 333 334 333 331 331 330 327 329 333 336 336 336 335 332 331 331 331 331 332 334 334 334 332 328 323 321 319 318 318 319 320 319 320 320 320 322 324 325 325 325 325 325 325 325 323 322 323 322 321 319 318 320 320 320 321 321 323 325 325 325 325 325 326 326 325 325 325 324 325 326 327
341 341 340 339 338 338 338 337 336 337 336 336 335 333 332 333 329 327 328 327 329 334 337 337 337 336 334 332 331 331 331 332 334 335 334 333 330 324 320 318 318 318 319 320 320 319 319 319 319 321 323 324 325 325 325 325 325 324 322 322 323 323 321 320 318 319 319 319 320 321 324 325 324 325 324 324 325 325 325 325 325 324 324 325 325
342 341 339 337 338 338 338 337 336 336 335 335 333 332 331 329 327 330 332 332 334 337 337 337 336 335 333 333 332 331 331 333 334 334 332 330 326 320 318 317 317 318 319 319 319 318 318 318 319 320 322 324 324 324 325 324 324 323 321 321 322 322 322 320 319 319 319 318 319 321 324 325 324 324 324 323 324 324 324 324 324 323 323 324 324
341 341 338 336 338 339 338 337 337 335 334 333 332 333 331 326 328 333 336 336 337 337 336 335 334 333 333 333 332 332 333 333 333 331 328 325 322 318 317 317 318 319 318 318 319 318 319 319 319 321 324 324 323 323 323 322 322 321 320 320 320 320 321 320 319 319 318 317 318 320 323 325 324 324 323 322 322 322 322 322 322 322 322 323 323
341 341 339 338 339 338 337 337 336 335 334 333 333 334 331 327 330 334 336 337 336 336 335 334 333 333 333 333 333 333 333 333 331 328 324 322 320 318 317 318 319 319 318 318 319 319 319 319 321 323 324 323 322 322 321 321 321 320 319 319 319 319 319 318 318 319 319 318 317 318 321 323 324 323 322 321 320 320 320 320 320 320 321 321 322
341 341 340 339 338 337 337 336 336 335 335 334 334 334 330 329 331 333 335 337 336 335 334 333 333 333 333 333 333 333 332 331 328 324 321 319 318 318 318 319 319 319 319 319 319 319 319 320 322 324 323 321 321 320 320 320 319 319 318 318 318 318 318 318 318 318 318 318 317 317 319 321 322 322 322 320 320 319 319 318 318 318 318 319 320
341 340 339 339 338 337 336 336 336 336 335 335 335 332 329 330 332 333 335 336 336 334 333 333 333 333 333 333 333 333 332 329 325 322 320 318 318 318 319 319 319 319 319 319 319 318 319 321 322 322 320 320 320 319 319 318 318 318 318 317 317 317 316 317 317 316 318 318 318 318 318 319 320 321 322 321 320 320 318 317 316 316 316 317 319
340 339 338 338 337 337 337 336 336 335 335 335 334 330 328 332 334 335 336 336 335 334 333 333 333 333 334 334 334 333 331 328 324 321 319 318 318 319 319 319 319 319 319 319 319 319 320 320 320 319 319 319 319 318 318 317 317 317 317 316 316 315 315 315 315 315 316 317 318 318 318 317 317 319 321 321 320 319 317 316 315 315 314 315 316
340 339 338 337 337 337 336 336 335 335 335 334 331 329 330 334 336 336 336 335 334 333 333 333 333 333 334 334 333 332 329 325 322 320 319 318 319 319 319 319 319 320 320 319 319 319 319 319 318 318 318 318 317 317 317 316 316 316 315 315 314 314 315 315 315 316 316 317 317 317 317 317 316 317 318 319 319 317 315 315 315 313 313 313 314
Wind_Speed
26 24 22 20 18 19 22 23 22 20 19 18 16 16 16 17 17 16 15 14 13 12 11 10 10 10 9 9 9 8 7 7 7 8 8 10 11 12 12 11 12 12 11 11 10 10 11 11 11 12 12 12 12 11 9 9 9 9 9 10 11 13 13 13 12 10 9 10 10 11 10 8 7 8 9 9 9 9 9 9 9 9 9 10 10
30 26 23 21 19 20 23 23 22 21 20 19 17 16 16 17 17 16 15 14 13 12 11 11 10 10 9 9 8 8 8 8 8 8 9 10 11 12 11 11 12 11 10 10 10 10 11 11 11 11 11 11 10 9 8 7 8 9 11 12 13 14 13 13 12 11 10 10 10 10 9 7 7 8 9 9 9 8 8 8 8 8 8 9 9
30 27 24 21 20 21 23 23 23 21 20 19 18 17 17 17 17 16 15 13 12 12 11 10 10 9 9 9 8 8 8 8 8 9 10 11 12 12 11 11 11 10 10 10 10 10 10 10 10 10 10 9 9 7 6 6 8 9 11 13 13 13 12 13 12 12 11 11 11 10 9 8 8 8 9 9 8 8 7 7 7 7 7 8 8
28 28 25 23 21 22 23 23 23 22 20 20 18 17 17 17 17 16 15 14 13 11 11 10 9 9 9 9 8 8 8 8 8 9 10 11 12 12 10 10 10 10 10 10 9 9 9 9 9 8 7 6 6 5 3 4 7 9 10 12 12 11 11 11 11 11 11 11 11 10 10 9 9 9 9 8 8 7 6 6 6 6 6 7 7
28 28 26 24 22 23 24 23 23 22 20 20 19 18 17 17 17 16 15 14 13 12 11 10 9 10 9 9 8 8 8 7 7 8 9 10 12 12 10 9 9 9 9 9 8 8 7 6 6 5 4 3 3 3 2 4 8 9 10 11 11 10 9 8 8 9 10 11 11 11 11 11 11 10 9 8 7 6 6 5 5 5 6 7 7
28 28 27 25 23 24 24 24 23 22 21 20 20 19 18 17 17 16 15 14 13 12 11 10 10 10 9 9 8 7 7 7 7 8 8 9 10 11 11 9 8 8 7 7 7 6 5 4 4 4 3 3 3 4 4 6 9 10 10 10 10 10 9 7 6 7 8 10 11 12 12 12 12 12 11 9 7 6 6 5 5 5 5 6 6
26 27 27 25 24 24 25 25 23 23 21 21 21 19 18 17 17 16 16 15 13 12 11 11 10 10 9 8 8 7 7 7 7 8 8 8 9 10 10 9 8 7 7 6 5 5 4 4 5 5 5 5 5 5 7 10 11 11 10 9 9 9 8 7 7 7 8 10 11 11 12 13 13 13 12 10 8 8 7 6 5 5 6 6 6
23 23 25 24 23 25 25 25 23 23 22 21 21 20 19 17 17 16 16 15 14 13 12 11 10 9 8 8 8 8 7 7 7 7 7 7 8 8 7 7 7 6 6 5 5 5 5 6 7 7 6 6 6 8 11 13 13 11 10 9 8 7 6 6 7 8 9 10 10 11 12 13 13 14 13 11 9 8 8 7 6 6 6 6 6
21 21 22 23 23 25 25 25 24 23 22 22 21 20 19 18 17 16 16 15 14 13 12 12 10 9 8 8 8 8 7 7 6 6 6 7 7 7 6 5 5 5 5 4 5 6 7 8 9 8 7 8 9 12 14 14 13 11 10 8 6 6 5 5 6 9 9 9 10 11 12 13 14 14 14 12 10 9 8 8 7 7 7 7 8
21 21 22 23 23 24 25 25 24 23 23 23 22 20 19 18 17 17 17 16 15 14 13 12 11 10 9 8 8 8 8 7 6 5 6 6 6 6 5 5 5 4 4 4 6 7 7 9 9 9 8 9 12 13 14 14 12 11 9 7 5 4 3 4 6 8 8 8 9 10 12 13 14 14 15 15 13 11 9 9 9 9 9 9 9
21 22 23 23 23 24 26 26 25 24 24 24 22 20 18 18 18 17 17 16 15 14 13 12 11 10 9 9 8 8 8 7 6 5 6 6 6 6 5 4 4 4 4 5 6 7 8 9 9 9 9 10 12 13 13 12 12 10 9 6 4 3 2 3 5 6 6 7 7 9 10 12 14 15 16 16 15 14 12 11 11 11 11 11 10
22 23 24 24 24 24 26 26 25 25 24 24 22 20 19 18 17 17 17 16 15 14 13 13 12 11 10 9 8 8 8 7 6 6 5 6 6 6 5 4 3 4 4 4 5 6 7 8 9 9 9 10 11 11 12 12 11 10 8 5 3 1 2 4 5 5 6 7 7 8 10 12 13 14 16 17 18 17 15 13 13 13 13 13 12
24 24 25 25 25 25 26 26 26 25 25 24 22 20 19 18 17 17 17 16 15 14 14 13 12 11 10 9 9 8 8 7 7 6 5 5 6 6 5 4 4 4 4 4 4 5 6 7 8 9 9 9 10 10 11 11 11 9 7 5 3 2 2 5 6 6 6 7 8 9 9 11 12 14 16 18 19 19 17 16 15 15 15 15 14
24 25 26 26 26 26 26 27 26 25 25 23 22 20 19 18 17 17 16 16 15 14 14 13 12 11 10 9 9 9 8 7 7 6 5 5 5 5 5 4 3 3 3 4 4 4 5 6 7 7 8 7 8 9 10 10 10 9 7 5 3 2 2 6 7 7 7 8 8 10 10 10 11 13 15 17 19 20 20 18 17 16 15 16 15
23 25 26 26 26 27 27 27 26 26 25 23 21 19 18 18 17 16 15 15 14 15 14 13 13 12 11 10 9 8 8 7 7 6 6 5 5 5 5 4 4 3 3 3 4 4 4 5 5 6 7 6 6 7 8 9 9 8 7 6 4 3 2 5 8 8 9 9 9 10 10 11 11 13 14 16 17 20 21 20 19 18 17 16 15
23 24 25 26 27 28 28 27 27 26 24 22 20 19 18 17 16 16 14 14 14 15 15 14 13 12 11 10 9 8 8 7 7 6 5 5 4 4 4 4 4 3 3 3 3 3 3 4 4 4 4 5 5 5 7 8 9 9 7 6 4 4 4 5 7 9 10 11 11 11 11 12 12 13 14 15 16 19 21 21 20 21 20 18 16
24 24 25 26 27 28 28 27 27 26 24 22 19 18 17 17 16 15 14 14 15 15 15 14 12 11 11 10 9 8 8 7 6 6 5 4 4 4 4 4 3 3 3 2 2 2 2 2 2 2 2 2 3 3 4 6 9 9 8 7 5 6 7 6 7 9 10 11 11 12 12 13 13 13 13 14 16 18 20 20 21 21 21 19 18
24 24 25 26 27 28 28 28 28 26 25 22 20 18 17 17 15 14 14 14 15 14 14 13 12 11 10 10 9 8 7 7 6 6 5 5 4 3 3 3 3 3 2 1 1 1 1 1 1 1 2 1 0 1 2 3 6 8 9 8 7 7 8 8 8 9 10 11 12 13 14 15 15 14 14 14 16 17 18 20 21 21 21 20 19
24 24 25 26 27 28 28 28 28 27 25 22 20 18 17 16 15 14 14 14 14 14 14 13 12 11 10 9 8 8 7 6 6 5 5 4 4 3 3 3 3 2 1 0 0 1 1 2 2 2 3 3 3 3 2 3 4 7 8 9 8 7 8 9 9 9 10 12 14 15 16 17 16 16 16 14 15 16 18 19 20 20 21 21 20
24 25 26 26 27 27 28 28 27 27 24 22 20 19 18 16 15 14 14 14 14 14 14 13 12 11 10 9 8 7 6 6 5 5 5 4 4 4 3 3 3 2 1 1 1 2 2 3 3 4 4 4 5 5 5 6 6 6 7 8 7 7 7 9 9 9 10 12 14 14 15 16 16 17 18 17 16 16 17 18 19 20 20 21 21
25 26 26 26 26 27 28 28 28 26 24 22 20 19 18 17 16 15 14 14 14 14 14 13 12 11 10 8 7 7 6 6 6 6 6 6 5 5 4 4 3 2 2 1 2 1 2 2 3 3 4 4 5 5 6 6 7 7 8 8 8 7 8 8 8 9 9 10 12 12 13 15 16 17 18 19 18 17 18 19 19 19 20 22 22
27 27 26 25 26 27 28 28 28 26 24 23 21 20 19 18 17 16 15 14 14 14 14 13 12 11 10 8 7 7 7 7 7 7 7 7 6 6 5 4 3 3 2 1 1 2 2 1 2 3 3 4 4 4 4 5 5 6 7 7 8 8 9 9 10 10 10 10 11 11 11 13 15 16 17 18 19 19 19 20 20 20 21 22 23
28 27 26 25 26 27 27 28 28 26 26 24 22 21 20 19 18 17 16 15 14 14 14 14 13 12 11 9 8 8 9 9 8 7 6 6 5 5 4 3 2 2 1 1 1 2 2 2 3 4 5 5 5 4 4 4 5 6 7 8 8 9 9 10 11 12 12 11 11 11 11 13 14 16 17 18 19 20 21 21 21 21 22 23 24
27 25 24 25 25 26 27 28 28 27 26 24 23 22 21 20 18 17 16 15 15 14 15 14 14 13 12 11 9 9 10 9 7 6 5 4 4 3 3 2 1 2 2 2 2 2 3 4 5 5 6 6 6 6 6 6 7 8 8 9 10 10 11 11 11 12 12 12 12 12 13 14 15 17 19 20 20 21 21 22 22 23 23 24 25
24 23 22 23 24 26 27 28 28 27 26 24 24 23 21 21 19 18 16 15 15 15 15 14 13 12 11 10 9 9 9 8 6 5 4 3 3 3 2 2 2 2 3 3 3 3 3 4 5 6 6 6 6 6 7 8 8 9 9 9 10 11 11 11 12 13 14 14 14 15 16 18 18 19 20 21 22 22 23 23 24 24 24 25 25
23 22 22 23 25 27 27 28 28 27 26 24 24 22 21 21 19 18 16 16 16 16 15 13 12 10 8 8 9 9 9 8 7 6 5 3 3 3 3 2 2 2 3 4 5 4 4 5 5 5 6 6 6 7 8 9 9 9 9 10 10 11 12 12 13 14 15 16 17 18 20 21 22 22 22 23 23 24 24 24 25 25 25 25 25
23 22 22 24 25 27 27 28 27 27 25 24 23 22 22 21 19 18 17 17 17 16 14 12 10 7 5 7 9 10 9 7 5 5 4 3 2 2 2 2 2 3 3 4 5 5 6 6 6 6 7 7 7 7 8 9 10 11 11 12 12 13 13 14 15 16 17 18 19 19 21 22 22 23 24 24 24 25 25 25 26 27 26 25 25
23 23 23 24 25 26 27 27 27 26 25 23 23 21 21 21 19 18 17 17 17 15 12 9 7 5 4 6 8 8 7 6 3 3 3 2 2 1 2 3 4 4 4 5 5 6 7 8 8 8 8 8 8 8 9 10 11 12 12 13 14 14 15 15 16 17 17 18 19 19 20 21 21 21 22 22 23 25 26 26 26 26 27 25 26
23 23 24 24 24 24 25 26 26 25 24 23 23 21 21 21 20 18 17 17 15 13 10 8 6 5 6 6 7 6 5 4 2 1 0 1 2 3 4 5 6 6 5 6 6 7 8 9 8 8 8 9 10 10 10 10 10 11 12 13 13 14 15 16 16 17 18 18 19 19 20 21 21 20 20 20 20 22 24 27 27 27 27 26 28
22 23 25 24 23 23 23 24 24 23 22 22 22 21 21 21 20 18 16 15 13 11 9 8 7 8 7 7 6 5 3 2 3 3 3 3 5 6 6 7 7 7 7 7 8 9 10 9 9 9 10 11 11 11 11 11 11 11 12 13 14 15 16 17 17 17 17 18 19 19 20 21 21 20 20 19 19 19 21 25 27 28 28 28 29
22 24 24 23 22 22 22 21 21 21 21 22 22 21 21 21 19 18 16 13 12 11 10 9 9 9 7 6 4 3 3 5 6 5 4 5 7 8 9 9 8 7 8 8 8 10 10 10 10 10 11 11 11 11 11 11 12 13 14 14 15 15 16 16 16 17 17 18 18 19 20 20 20 20 20 19 19 19 20 21 24 26 27 27 28
24 25 23 22 21 20 20 20 21 22 22 22 22 21 20 20 19 18 16 13 12 11 10 10 9 7 5 3 2 5 6 7 7 5 5 7 8 9 10 10 8 7 7 9 9 10 10 10 11 11 11 11 11 12 12 12 13 14 14 15 16 15 15 15 15 16 16 17 18 19 20 20 21 21 20 19 18 18 19 20 22 23 23 24 25
24 26 23 21 19 19 21 22 23 23 23 23 23 21 20 20 19 18 16 14 12 11 10 10 8 6 3 2 4 7 8 8 7 6 7 8 9 10 9 8 7 7 8 10 11 12 11 11 12 12 12 12 12 13 12 13 13 14 14 14 13 12 12 12 13 14 15 16 17 18 18 19 20 20 19 18 17 17 18 19 20 21 21 22 23
24 27 26 22 19 19 21 23 24 24 24 23 23 22 21 20 20 19 17 14 12 11 10 9 7 4 2 4 7 8 9 8 7 8 8 9 9 9 8 8 8 9 10 11 12 12 12 12 13 14 14 14 13 13 12 12 12 12 12 11 10 10 11 11 12 13 14 15 15 16 16 17 17 17 18 18 18 18 18 18 19 20 21 22 23
25 28 27 23 22 21 22 24 24 24 23 23 24 23 22 22 20 19 16 14 12 11 10 8 6 4 4 8 9 9 8 7 8 9 9 8 8 9 9 9 10 10 11 12 12 13 13 14 16 16 15 14 12 12 12 11 11 11 10 10 9 10 10 11 11 12 12 13 14 15 15 16 16 17 18 20 20 20 19 19 18 19 20 22 22
26 28 26 24 24 23 24 25 24 23 23 24 23 23 23 22 20 18 16 14 12 11 9 8 6 6 8 10 10 8 6 7 9 10 8 8 8 9 10 10 10 11 12 12 13 14 15 16 16 15 14 13 12 12 11 10 10 9 9 9 10 9 9 9 10 11 12 12 13 14 15 16 17 17 18 19 20 20 20 19 19 18 18 19 21
25 26 26 25 24 23 26 26 25 24 24 24 24 24 24 21 19 17 15 14 12 11 10 10 10 10 11 11 9 7 6 8 10 9 9 9 9 10 11 11 11 13 14 14 15 16 16 15 14 13 12 12 12 11 10 9 9 9 9 8 8 7 7 8 9 10 11 11 13 14 15 17 17 18 17 18 19 19 19 19 19 18 17 19 20
24 26 25 23 23 25 27 27 26 24 23 24 24 24 22 19 17 15 14 13 13 13 12 13 13 13 12 11 9 8 8 9 10 10 9 9 10 10 11 12 13 15 16 16 17 16 15 13 12 11 11 11 11 10 9 9 9 9 7 7 6 5 7 8 7 9 10 11 13 14 15 17 17 18 18 18 19 19 20 19 19 19 18 18 19
25 27 26 25 25 27 29 28 26 25 23 23 23 22 20 17 17 16 15 15 15 14 14 14 14 13 13 11 10 10 9 9 10 10 10 10 11 11 12 13 15 17 17 17 16 14 13 11 10 9 10 10 10 10 9 9 9 8 6 5 4 3 7 8 6 8 10 11 13 14 15 16 16 17 18 18 19 20 20 20 20 20 19 18 18
27 29 28 28 29 30 30 28 26 25 24 24 23 21 20 19 19 19 19 19 18 16 15 15 14 14 13 12 11 10 9 9 10 11 10 10 11 12 14 16 17 17 17 16 14 12 11 10 9 8 9 9 9 9 9 9 8 6 4 4 3 1 5 8 6 7 11 11 13 14 14 15 15 16 17 18 19 20 21 21 20 20 19 18 18
30 31 30 29 30 30 29 28 26 25 25 26 25 23 23 23 24 23 23 21 20 18 16 15 15 15 14 13 12 10 9 9 11 12 11 12 13 14 16 16 16 15 14 13 12 11 10 9 8 8 8 10 10 10 10 10 9 6 5 5 3 1 2 9 9 7 11 13 13 15 15 15 15 16 17 17 18 19 20 21 21 19 19 18 19
33 34 33 30 29 30 29 27 27 27 26 26 25 24 25 25 25 25 25 22 19 17 16 15 15 16 15 13 11 9 9 10 12 12 12 13 14 15 16 14 13 12 12 11 10 9 9 7 7 7 9 11 11 12 11 11 11 9 10 9 6 3 1 6 12 8 11 13 13 14 14 14 15 15 16 16 17 19 20 21 22 20 19 19 19
34 34 34 31 31 31 30 29 29 28 27 26 25 25 25 24 23 23 22 21 19 18 16 16 16 16 14 11 9 8 9 11 12 12 13 14 15 15 13 11 10 10 10 9 8 8 8 7 6 6 8 10 11 12 12 13 13 11 12 12 9 8 4 7 13 11 11 13 13 14 13 12 14 14 15 15 16 20 21 22 22 21 21 20 19
36 37 36 34 34 34 33 32 31 29 28 27 26 25 25 24 21 20 20 19 18 18 17 17 17 15 12 9 8 9 11 12 12 13 14 15 15 13 10 9 9 8 7 7 7 7 8 7 6 6 7 9 9 11 13 14 15 14 15 12 9 8 8 13 16 11 12 14 14 14 12 12 12 13 15 16 17 20 21 22 22 22 21 21 20
40 39 37 35 35 35 35 33 31 30 29 28 27 26 24 23 22 21 19 19 19 20 19 18 17 14 12 10 10 11 12 12 13 14 16 15 13 10 9 8 7 6 6 6 7 7 8 8 7 6 6 7 9 10 11 14 15 15 16 13 8 7 9 16 17 11 12 15 14 13 11 11 12 13 15 17 18 20 21 22 22 22 22 21 21
41 41 38 36 36 37 35 33 31 31 29 27 26 25 23 24 24 22 21 21 22 21 21 20 17 14 12 12 11 11 12 12 13 14 14 13 11 9 8 7 5 5 6 6 7 8 8 9 8 8 7 7 9 10 11 13 14 14 15 14 11 9 12 16 16 13 14 15 14 12 10 11 12 13 15 17 19 21 22 23 23 23 22 21 20
41 41 39 37 36 35 33 33 32 31 28 26 25 24 24 24 23 21 21 22 22 21 20 18 16 14 13 12 11 11 11 12 12 13 12 11 9 8 7 5 4 5 6 7 7 8 9 9 9 9 9 9 10 10 11 11 11 12 13 12 11 11 12 15 15 16 16 16 16 12 10 11 12 14 16 18 19 21 23 24 24 24 23 22 20
41 40 38 36 35 33 32 33 32 30 28 27 25 24 25 24 23 21 20 20 21 21 19 17 16 15 14 13 12 11 11 11 10 10 10 8 7 6 5 4 5 6 6 7 8 9 10 10 9 9 10 11 11 11 11 10 9 10 10 10 11 11 12 13 14 14 15 17 18 15 11 10 11 14 16 18 20 21 23 24 25 25 25 23 21
40 39 37 35 34 32 32 32 31 31 29 28 26 25 25 25 23 22 21 21 21 20 18 17 17 16 15 14 13 11 10 9 9 8 7 7 6 5 4 4 5 5 6 7 8 9 9 8 8 9 10 11 11 11 11 10 9 8 8 9 10 11 12 12 12 12 13 15 16 17 16 13 11 13 16 19 20 21 23 23 24 25 25 26 24
39 38 37 35 34 32 32 31 31 31 29 28 26 26 26 25 23 22 22 23 22 20 19 19 18 17 16 14 13 11 9 9 8 7 6 6 6 4 4 4 4 5 6 8 9 9 8 7 8 9 10 10 10 11 10 10 9 9 8 9 10 11 11 11 12 13 13 12 12 14 17 16 16 14 14 18 21 22 23 23 22 23 25 26 26
38 38 37 35 34 32 31 31 31 31 29 28 27 27 26 25 24 23 23 23 23 22 21 20 20 18 16 14 12 10 9 8 7 6 5 5 5 4 4 4 4 5 6 7 8 8 7 7 8 9 9 9 9 10 10 10 10 10 10 11 12 13 12 12 13 13 11 11 11 13 14 15 16 15 13 16 19 21 23 23 22 23 25 25 26
Wind_Direction
168 166 168 170 173 171 164 164 168 172 169 164 164 160 151 147 147 147 147 147 147 145 140 137 134 133 132 130 129 124 115 109 110 114 113 114 114 107 101 102 102 100 98 99 98 97 96 96 95 95 94 95 96 97 96 82 62 58 67 83 93 96 99 99 103 103 96 85 79 79 79 78 74 70 62 61 64 66 72 75 77 77 80 82 81
166 163 167 169 170 169 165 165 168 172 169 165 163 160 152 149 148 147 148 149 150 147 143 140 137 135 135 129 125 117 109 106 107 115 115 118 116 106 103 104 104 104 104 104 104 101 98 98 96 96 97 99 99 99 97 79 66 72 81 92 97 95 95 96 100 99 92 86 80 78 79 77 67 63 58 56 57 60 68 72 75 74 77 80 79
163 159 165 169 167 168 166 165 168 171 170 165 162 159 154 152 149 149 150 151 151 147 145 141 139 135 132 125 118 112 103 104 104 110 115 122 119 109 108 107 107 109 110 108 106 105 103 101 98 98 99 101 102 101 97 76 77 87 89 96 99 95 94 95 95 94 91 88 86 85 82 73 61 54 54 56 55 56 59 63 67 68 70 72 73
164 158 163 168 165 166 166 166 168 171 171 165 161 159 156 154 150 151 151 152 152 148 146 140 140 135 130 124 115 109 101 102 102 105 115 126 125 118 115 113 115 114 112 110 109 108 106 102 98 97 97 103 107 112 106 81 96 103 94 95 97 95 97 98 93 89 91 88 85 84 79 70 58 46 45 53 55 55 55 54 58 61 62 61 60
166 159 163 167 164 165 165 167 169 171 171 165 160 160 158 156 152 152 152 152 152 149 148 143 143 138 132 126 116 110 103 102 101 104 115 129 135 129 123 122 126 119 115 114 114 112 108 102 94 91 89 99 115 134 139 112 118 116 100 93 91 91 95 97 89 87 87 80 75 74 68 60 52 40 34 40 49 58 62 55 54 56 51 50 47
166 161 164 166 164 164 165 167 170 172 170 166 161 160 159 157 155 153 153 152 153 151 150 148 145 141 135 128 119 112 105 104 102 105 116 134 144 139 133 137 139 128 124 122 121 118 111 100 89 86 84 95 112 132 140 132 131 122 106 95 89 87 88 91 90 86 77 68 65 61 56 50 46 37 29 28 31 43 57 52 46 47 41 40 36
166 161 164 167 165 163 165 168 171 173 170 166 162 161 161 159 157 153 154 153 154 153 152 150 144 139 135 129 119 112 107 105 104 105 113 131 148 148 141 143 145 137 133 128 125 121 109 99 90 87 87 94 107 123 135 138 134 122 110 101 93 85 79 80 79 73 61 55 53 49 47 44 40 33 26 23 20 22 30 28 24 26 24 24 20
165 162 166 167 166 164 164 168 171 173 170 167 164 163 163 162 158 155 156 154 155 155 151 146 140 136 132 127 117 112 108 105 106 107 111 124 145 155 146 139 141 139 134 128 125 118 106 97 88 84 84 91 109 127 137 138 132 122 114 106 97 86 74 67 66 60 49 46 46 46 43 36 33 28 22 20 16 13 12 9 7 6 4 4 1
167 166 168 169 168 165 164 168 171 173 170 168 166 165 165 163 159 157 158 156 157 155 150 143 136 133 127 122 115 113 109 106 108 111 115 121 140 154 152 144 138 134 130 125 122 114 104 96 89 85 85 98 118 131 136 137 131 123 116 108 97 82 65 51 55 54 45 44 43 41 37 29 25 22 16 14 10 5 1 356 352 350 349 349 348
171 170 171 172 170 167 166 168 171 173 171 169 168 167 167 164 160 161 160 157 159 155 148 141 135 131 125 120 115 113 110 109 110 114 119 122 136 148 153 148 138 135 126 120 116 110 104 97 93 92 95 112 125 133 137 138 132 126 120 110 95 76 48 28 47 52 43 40 37 34 32 25 20 14 8 6 4 358 350 346 343 342 341 342 342
173 173 174 173 171 170 167 167 172 174 171 170 169 169 167 164 163 163 161 160 159 154 146 139 135 131 126 122 116 113 110 109 110 113 117 122 132 141 146 142 137 131 117 113 111 107 105 101 99 99 106 121 130 135 139 141 137 131 126 117 107 82 9 351 23 39 32 25 25 28 28 22 16 9 2 0 359 354 346 341 339 338 337 336 338
174 176 176 175 173 171 169 168 172 174 172 170 170 170 168 166 166 166 163 163 159 152 145 139 136 133 129 125 118 113 109 107 107 107 109 114 122 131 133 131 129 114 106 106 106 105 105 103 102 105 112 127 136 140 144 145 143 139 133 128 127 108 316 318 341 357 4 6 9 16 19 17 12 5 0 358 356 352 347 342 339 337 333 331 331
173 177 177 176 173 171 170 169 172 174 172 171 171 171 168 168 167 167 166 164 159 151 145 141 139 136 132 127 121 115 110 108 105 104 101 103 107 116 122 127 128 114 110 105 103 105 104 104 103 106 112 130 142 144 148 150 149 147 143 144 160 170 279 304 323 334 344 351 353 360 6 9 4 357 357 357 355 352 348 344 341 339 335 331 328
175 177 178 176 172 171 170 170 173 173 172 171 172 171 170 169 167 167 168 165 158 151 147 144 142 138 135 130 126 120 115 113 109 108 104 99 99 103 113 122 127 118 117 112 108 104 102 103 102 105 108 123 146 155 155 156 158 158 158 160 182 199 259 303 317 327 336 340 343 347 352 355 351 348 351 353 353 353 350 347 344 341 339 336 331
177 177 177 175 172 171 170 171 173 172 173 172 172 172 171 169 167 169 168 165 158 153 149 147 145 141 139 136 132 126 119 118 115 115 109 106 103 102 108 113 118 115 112 108 107 103 98 100 99 104 104 111 134 162 171 170 170 171 174 172 195 238 263 299 311 319 328 331 334 336 338 341 341 341 343 346 348 349 348 347 346 343 342 340 337
179 178 177 175 173 171 170 171 173 172 172 172 172 173 171 168 168 170 168 165 160 155 153 150 148 145 144 142 138 131 123 121 118 116 112 110 108 106 106 106 110 107 107 109 109 107 100 98 95 100 105 108 115 146 177 186 188 186 190 193 206 248 263 283 303 309 317 322 325 326 327 331 333 336 336 337 340 341 342 343 344 342 341 340 339
180 178 177 176 175 172 171 171 172 172 172 172 173 173 171 169 169 169 167 166 161 157 155 152 150 148 148 146 142 137 131 125 119 115 112 115 114 112 112 110 111 108 110 109 108 103 88 79 79 81 93 110 118 130 165 190 199 203 207 210 220 246 255 263 284 297 306 311 318 320 320 321 321 324 327 329 331 333 335 337 338 338 338 337 337
180 179 178 176 176 174 172 171 171 172 172 172 173 173 171 171 170 169 168 166 163 159 156 153 153 153 153 150 145 144 137 130 124 118 115 116 117 116 117 115 115 116 115 101 89 79 36 17 19 18 8 3 11 133 170 194 206 216 219 227 244 251 251 258 269 284 297 305 311 313 315 316 314 314 318 323 325 327 328 330 332 334 334 333 332
179 179 178 176 176 174 173 171 172 172 173 173 172 173 172 172 171 169 170 168 163 159 158 156 156 157 156 153 149 147 141 136 130 126 124 118 114 108 105 107 110 106 104 88 11 313 322 322 322 328 324 322 316 306 278 246 230 228 231 241 254 255 254 262 269 276 289 301 305 305 307 308 308 309 313 318 320 322 322 323 326 328 329 329 328
179 180 178 177 176 175 174 172 172 173 175 174 173 173 171 173 171 171 172 168 164 160 160 159 159 158 156 154 152 150 143 139 135 131 126 118 111 100 99 96 92 81 67 25 334 302 301 301 300 306 305 303 301 296 288 280 273 262 258 260 261 257 255 261 268 274 283 295 302 306 307 304 303 305 308 311 312 315 317 318 319 320 322 323 324
179 180 179 179 178 177 175 173 174 175 176 175 175 173 171 173 173 175 173 169 164 162 162 160 159 156 153 150 148 149 143 138 132 128 121 113 107 101 103 100 93 79 66 40 1 329 313 306 299 299 296 294 292 291 290 289 286 283 279 274 268 254 249 257 268 277 284 294 301 309 311 308 306 305 306 305 305 309 312 313 312 313 316 318 319
178 179 181 181 181 180 177 176 177 177 178 177 177 175 173 174 176 178 175 170 165 162 162 160 157 153 148 145 143 144 141 134 127 123 117 112 106 101 101 100 98 93 80 51 6 336 319 307 306 305 301 293 285 287 287 285 284 285 281 273 265 252 248 258 268 276 284 290 295 302 306 306 306 306 306 303 303 305 307 308 307 307 310 313 315
178 178 180 181 183 183 181 180 179 179 180 180 179 178 176 175 178 181 177 169 163 160 162 160 155 150 144 140 137 140 140 134 127 121 117 111 99 89 87 85 87 80 69 40 333 300 292 288 296 305 306 299 286 281 273 272 274 276 276 270 266 260 258 263 268 276 283 287 290 294 296 296 296 297 298 298 300 301 302 304 303 303 304 308 310
178 178 180 182 185 186 185 183 182 182 183 182 181 181 178 177 178 181 175 165 160 160 162 159 155 151 147 141 136 139 142 138 130 123 120 114 97 75 62 53 43 40 14 350 325 302 290 282 288 296 301 297 288 284 279 279 280 281 281 278 276 272 270 273 276 282 286 288 287 289 290 290 288 287 288 288 291 294 296 298 299 299 300 304 306
179 180 181 184 187 188 188 185 184 186 185 185 184 183 180 178 179 180 173 163 161 163 163 160 157 155 153 148 145 146 147 143 136 135 134 127 108 71 41 23 10 12 355 337 329 313 295 287 291 301 303 297 291 291 290 290 288 288 289 287 286 283 283 287 290 291 291 289 287 287 288 289 289 286 285 285 286 290 292 293 294 294 296 300 302
182 184 186 188 189 191 190 188 188 188 188 187 186 186 181 178 180 180 172 166 165 166 165 162 160 158 154 150 154 155 153 150 146 149 148 138 110 62 32 11 350 343 336 325 322 315 307 302 303 307 305 299 295 296 298 299 298 296 297 296 295 296 297 300 300 299 297 294 292 291 292 293 292 289 288 286 285 287 290 290 289 289 291 296 299
185 188 190 191 191 192 192 191 191 190 189 188 188 187 182 180 181 180 174 171 169 168 168 166 162 155 147 146 154 155 152 154 155 155 150 133 96 50 7 325 310 306 306 308 313 314 315 311 307 308 306 304 302 301 303 309 311 309 308 306 304 304 303 302 301 300 298 297 297 297 298 298 298 296 293 291 287 285 287 287 285 284 284 290 293
187 188 191 192 192 193 193 193 192 191 190 188 189 188 183 182 182 182 178 174 171 168 170 170 162 154 155 155 154 154 153 157 163 155 140 109 64 1 304 297 297 298 296 296 302 307 313 312 307 307 310 313 313 313 315 318 318 314 311 309 307 306 304 302 300 298 298 298 298 298 298 299 300 302 300 298 292 286 287 286 284 281 279 283 286
193 190 190 191 191 194 195 195 194 193 191 189 190 187 184 185 185 183 179 175 171 170 173 172 172 178 181 169 157 156 156 162 185 197 276 354 327 304 291 290 294 300 297 295 301 307 312 310 307 310 315 319 318 318 318 317 316 312 309 308 308 308 306 304 302 300 300 300 300 299 299 300 301 302 302 303 298 291 289 287 287 284 281 281 281
198 193 190 189 188 192 195 196 196 194 194 193 192 188 186 187 186 184 179 174 172 173 176 178 186 188 183 172 162 163 166 212 243 256 278 294 297 292 285 283 287 292 293 296 303 305 305 304 306 311 314 314 312 310 309 309 308 306 306 307 307 308 308 306 304 302 301 300 298 297 296 297 299 299 298 299 299 297 295 292 290 286 283 283 280
196 192 189 187 185 188 190 193 196 197 199 199 195 190 188 187 185 182 178 175 175 176 179 184 188 182 172 164 167 184 206 234 239 250 273 279 284 285 285 287 289 288 289 292 297 298 297 299 301 302 304 303 301 300 300 301 302 304 306 307 308 308 307 306 304 303 302 301 300 299 298 297 297 297 298 298 299 300 301 299 296 290 287 288 284
191 188 185 185 185 186 186 188 193 195 200 202 198 193 190 187 183 181 177 178 180 182 184 186 185 173 154 152 202 222 221 231 235 248 272 276 279 281 285 289 291 289 289 293 297 298 297 298 299 299 301 301 300 298 299 302 303 306 308 310 311 310 308 305 305 305 305 305 304 304 303 302 300 299 300 301 302 304 305 304 303 301 298 296 292
188 185 185 183 181 185 188 192 193 193 198 200 198 194 190 185 181 180 178 180 183 188 191 188 183 164 141 197 233 225 223 231 239 251 262 271 276 273 276 283 287 292 297 301 303 302 302 302 302 304 306 305 304 302 302 303 306 312 316 319 318 315 313 312 313 313 314 314 312 312 310 308 306 305 304 304 305 307 307 306 305 305 302 299 297
185 184 188 182 176 182 188 194 195 193 195 194 194 192 187 182 180 179 179 183 188 192 195 191 184 167 187 233 225 219 223 230 242 256 259 265 268 264 269 280 286 293 300 305 305 305 305 304 305 307 311 312 312 311 311 313 319 327 332 332 330 329 328 327 327 328 328 326 323 320 317 314 311 309 308 308 309 307 304 304 304 304 301 298 297
183 185 189 183 180 183 187 193 190 187 188 187 188 187 183 181 181 181 183 188 194 199 201 199 195 199 230 232 224 221 223 234 249 258 259 256 259 264 277 287 291 295 300 305 307 306 304 304 307 311 315 317 318 319 323 329 337 345 349 347 344 341 337 337 339 339 337 334 329 325 321 318 316 313 312 312 310 305 300 299 302 303 301 298 297
186 188 186 186 185 187 192 189 178 174 178 179 180 182 182 182 183 185 189 195 199 205 213 218 226 234 238 232 228 224 226 243 251 253 255 255 257 267 280 290 294 297 302 306 308 306 305 307 310 314 318 319 322 328 332 340 350 356 357 352 348 345 340 341 343 342 342 339 336 333 329 327 326 323 320 316 311 306 302 300 301 302 302 301 300
191 191 187 188 188 193 196 183 170 169 172 173 177 181 185 187 188 190 193 198 202 212 227 238 245 245 239 231 224 220 228 241 247 252 258 259 263 272 283 293 296 299 305 308 308 306 306 310 313 315 318 320 325 332 338 347 356 359 359 353 350 351 348 347 349 350 348 345 342 340 338 336 334 331 326 321 317 313 310 307 304 302 301 303 303
194 194 191 191 192 199 196 181 172 173 173 177 181 185 189 191 194 195 196 200 204 215 232 243 248 243 233 225 215 213 221 230 243 254 261 263 269 278 286 293 295 299 304 306 306 305 308 313 316 317 319 322 327 335 344 350 356 357 357 355 355 2 2 1 3 1 354 351 350 347 345 343 339 336 331 328 326 323 321 316 310 304 300 302 304
197 195 195 194 197 201 195 183 178 177 178 184 188 191 193 193 194 196 200 207 213 221 232 239 240 233 225 217 210 213 216 226 243 253 259 265 273 281 285 290 292 295 300 302 302 303 307 314 319 321 323 326 329 338 344 346 355 356 353 355 0 12 15 17 12 2 0 359 357 351 350 349 344 340 335 333 333 332 331 326 319 312 306 304 306
199 198 198 197 200 202 194 186 183 183 185 189 191 192 191 192 195 199 205 213 221 226 230 231 229 225 222 214 211 214 218 230 248 253 256 264 275 282 285 289 291 295 299 300 301 304 311 320 326 323 321 322 323 331 338 343 349 351 357 5 5 4 25 28 14 0 3 359 356 353 350 350 345 340 337 336 338 339 339 336 332 325 316 311 310
201 202 201 200 204 205 197 190 188 190 193 194 194 194 194 195 199 205 211 218 224 226 226 224 223 222 219 215 215 218 227 241 252 255 259 269 280 287 290 291 293 297 300 300 303 309 320 325 326 321 316 315 316 325 335 341 340 339 357 360 354 324 33 31 17 3 4 359 357 355 349 348 343 339 338 338 341 344 345 346 344 338 328 320 317
203 205 204 204 207 207 201 196 194 196 199 200 199 200 201 202 206 210 215 220 221 220 221 220 220 221 219 218 219 224 238 249 253 257 266 276 287 292 292 291 294 299 299 301 305 311 320 320 319 320 319 320 323 331 337 345 349 350 351 343 342 339 290 25 17 10 6 0 359 356 351 347 342 339 337 336 343 349 351 352 351 348 341 332 326
206 206 206 206 206 205 202 199 198 199 201 203 204 204 206 210 213 214 215 216 212 211 214 215 218 221 220 218 222 231 242 249 253 263 275 283 290 292 291 291 294 297 294 298 304 308 315 315 318 322 326 329 330 337 342 351 358 356 353 346 338 339 324 355 7 10 4 1 4 2 356 350 344 341 336 334 345 352 353 354 353 352 348 343 337
208 206 204 206 205 204 203 200 200 203 204 205 208 208 209 212 210 208 206 204 203 205 208 212 217 219 216 215 221 232 241 250 261 273 282 286 289 290 290 293 292 288 284 291 299 304 314 320 326 330 334 335 334 343 347 350 355 355 358 355 337 339 343 345 355 5 359 357 7 9 2 353 344 339 340 343 349 351 351 353 354 353 351 349 345
206 205 205 206 205 205 204 201 202 206 206 207 208 209 209 206 199 195 196 198 200 203 204 207 211 212 212 216 224 237 247 260 272 281 286 287 289 289 287 288 285 280 280 288 297 308 323 328 331 338 345 344 344 351 351 349 354 355 358 1 351 343 339 339 347 355 348 351 3 11 10 0 349 343 347 351 351 349 348 350 352 351 350 350 348
203 204 205 206 205 205 204 202 205 207 207 208 209 210 209 201 194 193 195 197 199 201 203 206 207 207 214 222 231 246 259 271 280 283 285 285 286 284 278 279 279 281 285 293 307 320 329 330 333 344 349 353 354 354 352 352 354 353 355 1 359 347 338 340 346 345 344 351 360 10 18 8 359 353 352 350 347 347 348 349 350 349 349 348 347
202 203 204 205 206 206 205 205 208 209 209 210 211 213 210 203 198 199 202 202 200 200 201 204 206 209 216 226 239 253 266 276 280 280 280 279 278 272 267 274 279 284 292 301 317 327 332 333 338 346 350 354 356 357 358 358 355 353 356 356 352 347 343 347 353 351 349 351 353 6 26 19 6 358 353 347 344 346 347 348 349 348 348 349 347
201 202 203 204 206 206 206 207 209 211 212 213 215 215 211 206 203 205 209 209 206 203 199 198 204 211 217 227 240 252 266 276 277 275 273 271 264 258 259 271 278 286 299 310 325 334 335 338 341 347 352 353 356 0 4 5 357 353 350 343 341 342 342 345 351 354 354 351 349 357 16 23 15 6 358 348 344 346 346 347 350 349 350 352 351
201 201 201 203 205 206 207 208 209 212 214 215 218 217 212 210 209 210 209 208 208 205 200 198 203 211 218 228 238 249 264 273 273 267 264 260 250 245 257 271 280 294 311 324 337 340 338 341 346 351 355 356 358 0 1 0 356 351 343 339 338 337 338 337 337 345 354 354 350 352 359 7 14 13 4 349 340 341 344 346 349 350 352 355 355
200 199 200 202 205 206 207 208 210 213 215 218 220 216 212 212 215 213 208 206 205 202 198 199 206 213 220 228 237 247 262 269 265 258 252 248 240 239 258 271 287 310 329 340 344 342 341 347 354 359 1 360 358 357 355 352 352 353 350 347 346 345 343 340 341 349 355 354 351 350 355 4 11 11 3 348 339 338 342 345 348 351 355 357 358
198 198 200 203 204 205 206 209 212 215 218 219 216 213 213 214 213 211 209 207 204 201 200 203 209 217 223 230 239 249 261 261 251 245 238 230 229 238 256 274 307 331 339 342 344 345 349 355 360 4 4 358 354 354 353 351 353 356 356 356 357 359 359 357 359 2 358 353 348 343 347 1 10 10 358 340 335 338 342 345 350 354 356 357 358